Location: *
(2.5500°S, 65.9667°W)
Time: 06:55:43
(UTC+00:00)

Feng Yun 1-1 Rocket - Visible Passes

Search period start: 21 May 2022 00:00
Search period end: 31 May 2022 00:00
Orbit: 829 x 934 km, 99.2° (Epoch: 20 May)

Date Brightness Start Highest point End Pass type
(mag) Time Alt. Az. Time Alt. Az. Time Alt. Az.
21 May 4.3 23:44:17 32° SE 23:46:54 60° ENE 23:52:23 10° N visible
22 May 4.4 23:41:29 31° SE 23:44:06 55° ENE 23:49:33 10° N visible
23 May 7.0 01:24:20 10° WSW 01:24:56 10° WSW 01:25:32 10° W visible
23 May 4.4 23:38:40 29° SE 23:41:18 51° ENE 23:46:41 10° N visible
24 May 7.0 01:21:20 11° WSW 01:22:09 11° WSW 01:23:45 10° W visible
24 May 4.5 23:35:51 28° SE 23:38:30 47° ENE 23:43:49 10° N visible
25 May 6.9 01:18:30 12° WSW 01:19:22 12° WSW 01:21:30 10° W visible
25 May 4.6 23:33:02 27° SE 23:35:42 44° ENE 23:40:56 10° N visible
26 May 6.8 01:15:41 13° WSW 01:16:35 13° WSW 01:19:08 10° WNW visible
26 May 4.7 23:30:13 25° SE 23:32:55 40° ENE 23:38:03 10° N visible
27 May 6.7 01:12:52 14° WSW 01:13:48 14° WSW 01:16:43 10° WNW visible
27 May 4.8 23:27:23 24° SE 23:30:06 37° ENE 23:35:10 10° N visible
28 May 6.6 01:10:03 15° WSW 01:11:01 16° WSW 01:14:12 10° WNW visible
28 May 4.9 23:24:34 22° SE 23:27:18 35° ENE 23:32:16 10° NNE visible
29 May 6.5 01:07:13 16° WSW 01:08:14 17° WSW 01:11:41 10° WNW visible
29 May 5.0 23:21:44 21° ESE 23:24:30 32° ENE 23:29:21 10° NNE visible
30 May 6.5 01:04:23 17° WSW 01:05:27 18° WSW 01:09:07 10° WNW visible
30 May 5.1 23:18:55 20° ESE 23:21:42 30° ENE 23:26:25 10° NNE visible
